Lyndonville, VT

4:54 AM EDT on July 27, 2017 (GMT -0400)
Lyndonville

Weather History for KCDA - February, 2013

Change the Weather History Date:

Thursday, February 7, 2013

  Actual Average (K1V4) Record (K1V4)
Temperature  
Mean Temperature 6 °F -  
Max Temperature 13 °F 27 °F 51 °F (2005)
Min Temperature -1 °F 5 °F -31 °F (1993)
Degree Days  
Heating Degree Days 59    
Moisture  
Dew Point -12 °F    
Average Humidity 43    
Maximum Humidity 63    
Minimum Humidity 21    
Precipitation  
Precipitation 0.00 in - - ()
Sea Level Pressure  
Sea Level Pressure 30.41 in    
Wind  
Wind Speed 3 mph (SW)    
Max Wind Speed 8 mph    
Max Gust Speed -    
Visibility 10 miles    
Events      
Averages and records for this station are not official NWS values.
T = Trace of Precipitation, MM = Missing Value Source: NWS Daily Summary

Daily Weather History Graph

Daily Weather History Graph

Search for Another Location

Airport or City:

Trip Planner

Search our weather history database for the weather conditions in past years. The results will help you decide how hot, cold, wet, or windy it might be!

Date:

Astronomy

Feb. 07, 2013 Rise Set
Actual Time 6:59 AM EST 5:05 PM EST
Civil Twilight 6:28 AM EST 5:36 PM EST
Nautical Twilight 5:54 AM EST 6:10 PM EST
Astronomical Twilight 5:20 AM EST 6:44 PM EST
Moon 4:40 AM EST (2/7) 2:23 PM EST (2/7)
Length of Visible Light 11h 07m
Length of Day
10h 06m
Waning Crescent, 9% of the Moon is Illuminated
Feb 7
Waning Crescent
Feb 10
New
Feb 17
First Quarter
Feb 25
Full
Mar 4
Last Quarter

Hourly Weather History & Observations

Time (EST) Temp. Windchill Dew Point Humidity Pressure Visibility Wind Dir Wind Speed Gust Speed Precip Events Conditions
12:15 AM 6.3 °F -2.6 °F -12.1 °F 43% 30.28 in 10.0 mi WSW 4.6 mph - N/A   Clear
12:35 AM 5.7 °F -1.3 °F -10.8 °F 47% 30.28 in 10.0 mi SW 3.5 mph - N/A   Clear
12:55 AM 5.9 °F - -12.1 °F 44% 30.28 in 10.0 mi Calm Calm - N/A   Clear
1:35 AM 5.5 °F -1.5 °F -11.2 °F 46% 30.31 in 10.0 mi SW 3.5 mph - N/A   Clear
1:55 AM 4.1 °F -3.2 °F -9.8 °F 53% 30.31 in 10.0 mi SW 3.5 mph - N/A   Clear
2:15 AM 3.2 °F - -9.8 °F 55% 30.30 in 10.0 mi Calm Calm - N/A   Clear
2:35 AM 4.5 °F -2.7 °F -9.0 °F 54% 30.32 in 10.0 mi SW 3.5 mph - N/A   Clear
2:55 AM 4.1 °F -5.1 °F -9.2 °F 54% 30.32 in 10.0 mi SW 4.6 mph - N/A   Clear
3:15 AM 3.0 °F - -9.4 °F 56% 30.32 in 10.0 mi Calm Calm - N/A   Clear
3:35 AM 1.4 °F -6.2 °F -8.7 °F 63% 30.33 in 10.0 mi SW 3.5 mph - N/A   Clear
3:55 AM 1.2 °F -8.5 °F -9.8 °F 60% 30.34 in 10.0 mi SW 4.6 mph - N/A   Clear
4:15 AM 0.9 °F -11.9 °F -10.1 °F 60% 30.35 in 10.0 mi SW 6.9 mph - N/A   Clear
4:55 AM 1.6 °F -12.2 °F -11.2 °F 55% 30.37 in 10.0 mi SW 8.1 mph - N/A   Clear
5:15 AM 1.4 °F -12.5 °F -11.7 °F 54% 30.38 in 10.0 mi SW 8.1 mph - N/A   Clear
5:35 AM 0.5 °F -13.6 °F -12.1 °F 55% 30.38 in 10.0 mi SW 8.1 mph - N/A   Clear
5:55 AM 0.3 °F -11.2 °F -11.6 °F 57% 30.39 in 10.0 mi SW 5.8 mph - N/A   Clear
6:15 AM -0.4 °F -13.4 °F -12.3 °F 57% 30.38 in 10.0 mi SW 6.9 mph - N/A   Clear
6:35 AM -0.4 °F -10.4 °F -13.0 °F 55% 30.40 in 10.0 mi SW 4.6 mph - N/A   Clear
7:15 AM -1.5 °F -11.6 °F -12.1 °F 61% 30.41 in 10.0 mi SW 4.6 mph - N/A   Clear
7:35 AM -1.5 °F -11.6 °F -12.1 °F 61% 30.41 in 10.0 mi SW 4.6 mph - N/A   Clear
7:55 AM -0.6 °F - -12.1 °F 58% 30.44 in 10.0 mi Calm Calm - N/A   Clear
8:15 AM -0.2 °F -10.1 °F -12.6 °F 56% 30.45 in 10.0 mi SW 4.6 mph - N/A   Clear
8:35 AM 0.5 °F -11.0 °F -12.6 °F 54% 30.46 in 10.0 mi SW 5.8 mph - N/A   Clear
8:55 AM 1.0 °F -11.7 °F -13.2 °F 51% 30.46 in 10.0 mi SW 6.9 mph - N/A   Clear
9:15 AM 1.9 °F -9.2 °F -13.4 °F 49% 30.46 in 10.0 mi SW 5.8 mph - N/A   Clear
9:35 AM 2.8 °F -6.6 °F -13.0 °F 48% 30.47 in 10.0 mi SW 4.6 mph - N/A   Clear
9:55 AM 3.2 °F -4.2 °F -15.0 °F 43% 30.47 in 10.0 mi SW 3.5 mph - N/A   Clear
10:15 AM 3.7 °F -7.1 °F -15.5 °F 41% 30.48 in 10.0 mi WSW 5.8 mph - N/A   Clear
10:35 AM 5.4 °F -1.7 °F -14.4 °F 40% 30.49 in 10.0 mi WSW 3.5 mph - N/A   Clear
10:55 AM 5.5 °F -3.4 °F -14.4 °F 39% 30.49 in 10.0 mi WSW 4.6 mph - N/A   Clear
11:15 AM 6.1 °F -2.8 °F -15.0 °F 38% 30.49 in 10.0 mi WSW 4.6 mph - N/A   Clear
11:35 AM 7.9 °F -0.7 °F -14.1 °F 36% 30.47 in 10.0 mi WSW 4.6 mph - N/A   Clear
11:55 AM 8.4 °F -0.1 °F -17.7 °F 30% 30.47 in 10.0 mi WSW 4.6 mph - N/A   Clear
12:15 PM 9.5 °F -0.3 °F -18.2 °F 28% 30.47 in 10.0 mi WSW 5.8 mph - N/A   Clear
12:35 PM 9.7 °F 3.2 °F -18.6 °F 27% 30.46 in 10.0 mi WSW 3.5 mph - N/A   Clear
12:55 PM 9.9 °F - -16.8 °F 29% 30.46 in 10.0 mi Calm Calm - N/A   Mostly Cloudy
1:15 PM 10.9 °F 4.7 °F -16.1 °F 29% 30.45 in 10.0 mi WSW 3.5 mph - N/A   Overcast
1:35 PM 10.9 °F - -18.4 °F 26% 30.44 in 10.0 mi Calm Calm - N/A   Mostly Cloudy
1:55 PM 11.7 °F - -17.9 °F 26% 30.45 in 10.0 mi Calm Calm - N/A   Mostly Cloudy
2:15 PM 11.5 °F 5.3 °F -17.9 °F 26% 30.44 in 10.0 mi WSW 3.5 mph - N/A   Mostly Cloudy
2:35 PM 12.7 °F 2.4 °F -16.4 °F 26% 30.44 in 10.0 mi WSW 6.9 mph - N/A   Scattered Clouds
2:55 PM 13.3 °F 7.3 °F -18.6 °F 23% 30.44 in 10.0 mi WSW 3.5 mph - N/A   Mostly Cloudy
3:15 PM 12.9 °F - -19.8 °F 22% 30.44 in 10.0 mi Calm Calm - N/A   Scattered Clouds
3:35 PM 13.8 °F 6.2 °F -18.2 °F 23% 30.44 in 10.0 mi WSW 4.6 mph - N/A   Clear
3:55 PM 13.3 °F - -20.6 °F 21% 30.44 in 10.0 mi Calm Calm - N/A   Clear
4:15 PM 11.8 °F - -17.1 °F 26% 30.44 in 10.0 mi Calm Calm - N/A   Scattered Clouds
4:35 PM 12.2 °F - -16.6 °F 27% 30.43 in 10.0 mi Calm Calm - N/A   Mostly Cloudy
4:55 PM 11.8 °F - -16.4 °F 27% 30.42 in 10.0 mi Calm Calm - N/A   Overcast
5:15 PM 11.7 °F - -15.9 °F 28% 30.43 in 10.0 mi Calm Calm - N/A   Overcast
5:35 PM 11.7 °F - -14.8 °F 30% 30.44 in 10.0 mi Calm Calm - N/A   Overcast
5:55 PM 11.5 °F - -15.5 °F 29% 30.44 in 10.0 mi Calm Calm - N/A   Overcast
6:15 PM 10.0 °F - -8.5 °F 43% 30.44 in 10.0 mi Calm Calm - N/A   Overcast
6:35 PM 10.2 °F 0.6 °F -11.7 °F 37% 30.44 in 10.0 mi SW 5.8 mph - N/A   Overcast
6:55 PM 10.0 °F 0.4 °F -11.4 °F 38% 30.44 in 10.0 mi SW 5.8 mph - N/A   Overcast
7:15 PM 9.5 °F 1.2 °F -10.7 °F 40% 30.43 in 10.0 mi SW 4.6 mph - N/A   Overcast
7:35 PM 9.1 °F - -9.2 °F 43% 30.44 in 10.0 mi Calm Calm - N/A   Overcast
7:55 PM 9.5 °F - -9.2 °F 43% 30.44 in 10.0 mi Calm Calm - N/A   Overcast
8:15 PM 9.5 °F - -9.6 °F 42% 30.44 in 10.0 mi Calm Calm - N/A   Overcast
8:35 PM 9.5 °F - -10.3 °F 40% 30.44 in 10.0 mi Calm Calm - N/A   Overcast
8:55 PM 9.5 °F - -6.2 °F 49% 30.44 in 10.0 mi Calm Calm - N/A   Overcast
9:15 PM 9.1 °F - -6.5 °F 49% 30.44 in 10.0 mi Calm Calm - N/A   Overcast
9:35 PM 9.3 °F - -6.0 °F 50% 30.44 in 10.0 mi Calm Calm - N/A   Overcast
9:55 PM 9.5 °F - -6.7 °F 48% 30.43 in 10.0 mi Calm Calm - N/A   Overcast
10:15 PM 9.3 °F - -6.3 °F 49% 30.42 in 10.0 mi Calm Calm - N/A   Overcast
10:35 PM 9.5 °F - -6.3 °F 49% 30.41 in 10.0 mi Calm Calm - N/A   Overcast
10:55 PM 9.5 °F - -6.3 °F 49% 30.41 in 10.0 mi Calm Calm - N/A   Overcast
11:15 PM 9.5 °F - -5.6 °F 50% 30.40 in 10.0 mi Calm Calm - N/A   Mostly Cloudy
11:35 PM 10.2 °F - -4.9 °F 51% 30.40 in 10.0 mi Calm Calm - N/A   Overcast
11:55 PM 9.5 °F - -3.3 °F 56% 30.40 in 10.0 mi Calm Calm - N/A   Overcast